TimeEDT,TemperatureF,Dew PointF,Humidity,Sea Level PressureIn,VisibilityMPH,Wind Direction,Wind SpeedMPH,Gust SpeedMPH,PrecipitationIn,Events,Conditions,WindDirDegrees,DateUTC
12:53 AM,53.1,46.9,80,29.94,10.0,South,3.5,-,N/A,,Clear,190,2013-05-10 04:53:00
1:53 AM,53.6,46.4,77,29.94,10.0,SSW,5.8,-,N/A,,Clear,200,2013-05-10 05:53:00
2:53 AM,52.0,46.9,83,29.94,10.0,SSW,5.8,-,N/A,,Clear,210,2013-05-10 06:53:00
3:53 AM,51.1,46.9,86,29.93,9.0,SSW,4.6,-,N/A,,Clear,200,2013-05-10 07:53:00
4:53 AM,51.1,46.9,86,29.91,8.0,Calm,Calm,-,N/A,,Clear,0,2013-05-10 08:53:00
5:53 AM,50.0,46.9,89,29.91,6.0,Calm,Calm,-,N/A,,Clear,0,2013-05-10 09:53:00
6:53 AM,53.1,48.9,86,29.91,7.0,Calm,Calm,-,N/A,,Clear,0,2013-05-10 10:53:00
7:04 AM,53.6,48.2,82,29.90,7.0,Calm,Calm,-,N/A,,Overcast,0,2013-05-10 11:04:00
7:53 AM,57.0,50.0,77,29.90,10.0,East,3.5,-,N/A,,Overcast,80,2013-05-10 11:53:00
8:53 AM,59.0,48.9,69,29.89,10.0,SE,4.6,-,N/A,,Overcast,130,2013-05-10 12:53:00
9:02 AM,59.0,48.2,67,29.89,10.0,Variable,3.5,-,0.00,Rain,Light Rain,0,2013-05-10 13:02:00
9:53 AM,57.9,51.1,78,29.91,7.0,SW,8.1,-,0.01,Rain,Light Rain,230,2013-05-10 13:53:00
10:53 AM,57.0,53.1,87,29.90,10.0,SE,3.5,-,0.03,Rain,Light Rain,130,2013-05-10 14:53:00
11:17 AM,57.2,53.6,88,29.86,7.0,ESE,8.1,-,0.01,,Overcast,110,2013-05-10 15:17:00
11:53 AM,63.0,57.0,81,29.86,10.0,SSE,8.1,-,0.01,,Mostly Cloudy,160,2013-05-10 15:53:00
12:45 PM,64.4,55.4,73,29.84,10.0,South,8.1,-,0.01,Rain,Light Rain,170,2013-05-10 16:45:00
12:53 PM,64.4,55.4,73,29.83,8.0,South,8.1,-,N/A,Rain,Light Rain,190,2013-05-10 16:53:00
1:49 PM,68.0,57.2,68,29.81,10.0,South,8.1,-,0.00,,Overcast,170,2013-05-10 17:49:00
1:53 PM,68.0,57.9,70,29.82,10.0,South,8.1,-,0.00,,Overcast,180,2013-05-10 17:53:00
2:53 PM,73.0,59.0,61,29.78,10.0,SSW,9.2,-,N/A,,Mostly Cloudy,200,2013-05-10 18:53:00
3:16 PM,73.4,57.2,57,29.77,10.0,SSW,11.5,-,N/A,,Mostly Cloudy,210,2013-05-10 19:16:00
3:53 PM,73.0,57.9,59,29.76,10.0,SW,11.5,-,N/A,,Mostly Cloudy,230,2013-05-10 19:53:00
4:41 PM,71.6,55.4,57,29.74,10.0,WSW,11.5,-,0.00,Rain-Thunderstorm,Light Thunderstorms and Rain,240,2013-05-10 20:41:00
4:53 PM,70.0,57.0,63,29.75,10.0,SW,12.7,-,0.00,Rain-Thunderstorm,Light Thunderstorms and Rain,220,2013-05-10 20:53:00
5:07 PM,66.2,59.0,78,29.75,10.0,SW,15.0,23.0,0.02,Thunderstorm,Thunderstorm,220,2013-05-10 21:07:00
5:22 PM,66.2,60.8,83,29.75,10.0,South,8.1,-,0.02,,Overcast,190,2013-05-10 21:22:00
5:53 PM,66.0,60.1,81,29.75,10.0,South,8.1,-,0.02,,Overcast,180,2013-05-10 21:53:00
6:53 PM,63.0,57.9,84,29.75,10.0,South,10.4,-,N/A,,Overcast,190,2013-05-10 22:53:00
7:47 PM,62.6,57.2,82,29.74,10.0,SSW,12.7,20.7,0.00,Rain,Light Rain,200,2013-05-10 23:47:00
7:53 PM,63.0,57.0,81,29.75,10.0,SSW,17.3,23.0,0.00,Rain,Light Rain,200,2013-05-10 23:53:00
8:21 PM,60.8,55.4,82,29.74,10.0,SW,19.6,25.3,0.00,Rain,Light Rain,220,2013-05-11 00:21:00
8:53 PM,59.0,55.9,90,29.75,7.0,SW,17.3,23.0,0.03,Rain,Light Rain,220,2013-05-11 00:53:00
9:10 PM,59.0,57.2,94,29.74,5.0,SW,18.4,25.3,0.06,Rain,Rain,220,2013-05-11 01:10:00
9:53 PM,59.0,57.0,93,29.73,10.0,SSW,13.8,-,0.08,Rain,Light Rain,200,2013-05-11 01:53:00
10:35 PM,59.0,55.4,88,29.72,10.0,SSW,12.7,-,0.00,Rain,Light Rain,210,2013-05-11 02:35:00
10:53 PM,59.0,55.9,90,29.72,10.0,SSW,12.7,-,0.00,,Light Drizzle,210,2013-05-11 02:53:00
11:53 PM,60.1,57.0,90,29.70,10.0,SSW,13.8,21.9,0.00,,Overcast,200,2013-05-11 03:53:00